STARLINK-36204, 68549

Orbit data source: Space-Track

STARLINK-36204, 68549 is a payload satellite owned by SpaceX/Seattle (US) in LEO that was launched on Thu, 02 Apr 2026 UTC via an FALCON 9 launch vehicle from the Air Force Eastern Test Range (AFETR). Payload-class satellites include a variety of spacecraft equipped with specific instruments for various scientific and technological missions. These include communications satellites like Starlink; space stations such as the ISS; scientific satellites like the Hubble; Earth observation satellites from companies like Planet Labs, Umbra, and HawkEye 360; GPS; miniature CubeSats for education and research; and military/defense satellites.

Loading next visibility...
Identifier
68549, 2026-070H
Orbit
LEO
Country
Flag of USUS
Related business
Manufacturer
SpaceX/Seattle
Mission
Operational Commercial Communications
Bus & Motor
STARLINK V2MO, Unknown motor
Mass
575 kg wet, ~530 kg dry
Launch date (UTC)
2026-04-02 (5 months ago)
Launch vehicle
FALCON 9
Launch site
Air Force Eastern Test Range (AFETR)
Object type
Payload
Rocket body
Debris
Shape & HBR
Box + 1 Pan, 17.7 m
Radar Cross Section
41.120 m², Large (>1 m²)

Expand to show TLE details & history
Last TLE update: 10 hours ago

TLE from 10 hours ago
0 STARLINK-36204
1 68549U 26070H   26247.00544253  .00015780  00000-0  47737-3 0  9993
2 68549  53.1589 250.9302 0001153  74.8863 285.2267 15.34388017 23908
Epoch: 2026-09-04T00:07Z
TLE epoch observation values (Epoch: 2026-09-04T00:07:50.234Z)
Latitude
-0.00003°
Longitude
-94.16461°
Altitude
463.433 km
Speed
7.636 km/s
True Right ascension
16h 43m 43s
True Declination
0° 00' 00"
Sunlit
Object was in daylight at epoch
Visualization orbit readout
Latitude
Unknown
Longitude
Unknown
Altitude
Unknown
Speed
Unknown
Apparent Right ascension
Unknown
Apparent Declination
Unknown
Sunlit
N/A
Visualization observer readout
Local Sidereal Time
01:36:22
Azimuth
Unknown
Elevation
Unknown
Doppler factor
Unknown
Orbital elements
Apogee altitude
463.785 km
Perigee altitude
462.207 km
Semi-major axis
6,841.133 km
Eccentricity
0.00012
Inclination
53.1589°
RAAN
250.9302°
Arg. of periapsis
74.8863°
True anomaly
285.21395°
Mean anomaly
285.2267°
Eccentric anomaly
285.22033°
Mean motion
3.83576 °/min
Orbital period
93.85 mins
BSTAR
0.00047737
Loading maneuver chart data...
Computing Atmospheric mass density...
Loading historical data...
Loading historical data...
Loading historical data...
Loading historical data...
Loading historical data...
Loading historical data...
Loading historical data...

Documentation

Showing up to 5 results
|